Paynesville, MN

4:35 AM CDT on April 22, 2018 (GMT -0500)
Paynesville

Weather History for KPEX - August, 2014

Change the Weather History Date:

Monday, August 11, 2014

  Actual Average (KLJF) Record (KLJF)
Temperature  
Mean Temperature 64 °F -  
Max Temperature 73 °F 81 °F 95 °F (1988)
Min Temperature 56 °F 56 °F 33 °F (2008)
Degree Days  
Heating Degree Days 1    
Growing Degree Days 14 (Base 50)    
Moisture  
Dew Point 54 °F    
Average Humidity 71    
Maximum Humidity 97    
Minimum Humidity 40    
Precipitation  
Precipitation 0.00 in - - ()
Sea Level Pressure  
Sea Level Pressure 30.07 in    
Wind  
Wind Speed 10 mph (WNW)    
Max Wind Speed 17 mph    
Max Gust Speed 25 mph    
Visibility 9 miles    
Events      
Averages and records for this station are not official NWS values.
T = Trace of Precipitation, MM = Missing Value Source: NWS Daily Summary

Daily Weather History Graph

Daily Weather History Graph

Search for Another Location

Airport or City:

Astronomy

Aug. 11, 2014 Rise Set
Actual Time 6:15 AM CDT 8:32 PM CDT
Civil Twilight 5:42 AM CDT 9:04 PM CDT
Nautical Twilight 5:01 AM CDT 9:45 PM CDT
Astronomical Twilight 4:16 AM CDT 10:30 PM CDT
Moon 8:53 PM CDT (8/11) 7:27 AM CDT (8/11)
Length of Visible Light 15h 22m
Length of Day
14h 17m
Full, 99% of the Moon is Illuminated
Aug 11
Full
Aug 17
Last Quarter
Aug 25
New
Sep 2
First Quarter
Sep 8
Full

Hourly Weather History & Observations

Time (CDT) Temp. Dew Point Humidity Pressure Visibility Wind Dir Wind Speed Gust Speed Precip Events Conditions
12:14 AM 65.5 °F 61.9 °F 88% 30.03 in 10.0 mi WNW 13.8 mph 18.4 mph N/A   Overcast
12:34 AM 65.3 °F 60.4 °F 84% 30.03 in 10.0 mi WNW 11.5 mph 19.6 mph N/A   Overcast
12:55 AM 64.8 °F 59.9 °F 84% 30.02 in 10.0 mi WNW 11.5 mph 18.4 mph N/A   Overcast
1:14 AM 64.0 °F 59.4 °F 85% 30.02 in 10.0 mi WNW 11.5 mph 16.1 mph N/A   Overcast
1:34 AM 63.7 °F 59.5 °F 86% 30.03 in 10.0 mi WNW 9.2 mph - N/A   Overcast
1:54 AM 62.8 °F 59.5 °F 89% 30.03 in 10.0 mi WNW 6.9 mph - N/A   Mostly Cloudy
2:14 AM 62.1 °F 60.3 °F 94% 30.03 in 10.0 mi WNW 3.5 mph - N/A   Mostly Cloudy
2:34 AM 61.9 °F 60.8 °F 96% 30.03 in 10.0 mi WNW 4.6 mph - N/A   Mostly Cloudy
2:54 AM 61.9 °F 60.8 °F 96% 30.03 in 10.0 mi WNW 4.6 mph - N/A   Mostly Cloudy
3:14 AM 62.1 °F 61.0 °F 96% 30.03 in 10.0 mi Calm Calm - N/A   Overcast
3:34 AM 61.7 °F 60.8 °F 97% 30.03 in 10.0 mi West 4.6 mph - N/A   Overcast
3:54 AM 61.7 °F 61.0 °F 97% 30.03 in 10.0 mi West 5.8 mph - N/A   Mostly Cloudy
4:14 AM 60.8 °F 59.2 °F 94% 30.03 in 10.0 mi West 5.8 mph - N/A   Mostly Cloudy
4:34 AM 59.9 °F 58.3 °F 94% 30.03 in 10.0 mi West 6.9 mph - N/A   Scattered Clouds
4:54 AM 59.5 °F 57.7 °F 94% 30.03 in 10.0 mi West 6.9 mph - N/A   Scattered Clouds
5:14 AM 59.0 °F 57.6 °F 95% 30.03 in 7.0 mi West 10.4 mph - N/A   Scattered Clouds
5:34 AM 59.0 °F 57.4 °F 94% 30.03 in 10.0 mi West 8.1 mph - N/A   Clear
5:55 AM 59.0 °F 56.7 °F 92% 30.03 in 10.0 mi West 8.1 mph - N/A   Clear
6:15 AM 58.5 °F 55.9 °F 91% 30.04 in 10.0 mi West 6.9 mph 16.1 mph N/A   Clear
6:34 AM 58.3 °F 55.8 °F 91% 30.04 in 7.0 mi West 9.2 mph - N/A   Clear
6:54 AM 57.9 °F 55.4 °F 91% 30.05 in 7.0 mi West 8.1 mph - N/A   Clear
7:14 AM 58.1 °F 55.4 °F 91% 30.05 in 7.0 mi WNW 8.1 mph - N/A   Clear
7:34 AM 59.0 °F 55.4 °F 88% 30.06 in 7.0 mi West 8.1 mph - N/A   Clear
7:54 AM 59.0 °F 55.4 °F 88% 30.06 in 7.0 mi WNW 6.9 mph - N/A   Scattered Clouds
8:14 AM 59.5 °F 55.4 °F 86% 30.07 in 7.0 mi WNW 6.9 mph - N/A   Scattered Clouds
8:34 AM 60.8 °F 55.6 °F 83% 30.07 in 7.0 mi WNW 11.5 mph 17.3 mph N/A   Clear
8:55 AM 62.6 °F 55.9 °F 79% 30.08 in 7.0 mi NW 11.5 mph 17.3 mph N/A   Clear
9:14 AM 63.7 °F 56.1 °F 76% 30.08 in 7.0 mi WNW 12.7 mph 18.4 mph N/A   Clear
9:34 AM 64.2 °F 55.6 °F 73% 30.08 in 7.0 mi NW 10.4 mph 18.4 mph N/A   Clear
9:54 AM 65.1 °F 55.4 °F 71% 30.09 in 7.0 mi NW 10.4 mph 18.4 mph N/A   Clear
10:14 AM 66.2 °F 55.4 °F 68% 30.09 in 7.0 mi WNW 13.8 mph 18.4 mph N/A   Clear
10:33 AM 66.2 °F 55.4 °F 68% 30.09 in 7.0 mi WNW 13.8 mph 19.6 mph N/A   Clear
10:54 AM 67.3 °F 55.0 °F 65% 30.10 in 7.0 mi WNW 12.7 mph 17.3 mph N/A   Clear
11:14 AM 68.0 °F 54.3 °F 62% 30.10 in 7.0 mi NW 12.7 mph 18.4 mph N/A   Clear
11:34 AM 68.9 °F 54.3 °F 60% 30.10 in 7.0 mi West 15.0 mph 21.9 mph N/A   Clear
11:54 AM 69.8 °F 54.0 °F 57% 30.10 in 7.0 mi WNW 13.8 mph 19.6 mph N/A   Clear
12:14 PM 69.8 °F 52.9 °F 55% 30.10 in 10.0 mi WNW 15.0 mph 23.0 mph N/A   Clear
12:34 PM 70.9 °F 53.1 °F 53% 30.10 in 10.0 mi WNW 15.0 mph - N/A   Scattered Clouds
12:54 PM 71.4 °F 51.1 °F 49% 30.10 in 10.0 mi WNW 17.3 mph 21.9 mph N/A   Scattered Clouds
1:14 PM 71.4 °F 51.3 °F 49% 30.10 in 7.0 mi WNW 12.7 mph 20.7 mph N/A   Scattered Clouds
1:34 PM 71.8 °F 50.4 °F 47% 30.09 in 10.0 mi West 16.1 mph 19.6 mph N/A   Scattered Clouds
1:53 PM 71.8 °F 50.0 °F 46% 30.10 in 10.0 mi West 13.8 mph 21.9 mph N/A   Scattered Clouds
2:14 PM 72.0 °F 49.6 °F 45% 30.10 in 10.0 mi West 13.8 mph 23.0 mph N/A   Scattered Clouds
2:34 PM 72.0 °F 48.4 °F 43% 30.10 in 10.0 mi West 13.8 mph 25.3 mph N/A   Scattered Clouds
2:55 PM 72.7 °F 48.2 °F 42% 30.10 in 7.0 mi WNW 12.7 mph 21.9 mph N/A   Clear
3:14 PM 72.7 °F 48.2 °F 42% 30.10 in 10.0 mi WNW 13.8 mph 21.9 mph N/A   Scattered Clouds
3:34 PM 72.5 °F 48.0 °F 42% 30.09 in 10.0 mi West 15.0 mph 20.7 mph N/A   Clear
3:54 PM 72.7 °F 47.3 °F 40% 30.09 in 10.0 mi WNW 13.8 mph 20.7 mph N/A   Clear
4:14 PM 72.5 °F 48.4 °F 42% 30.09 in 10.0 mi West 15.0 mph 19.6 mph N/A   Clear
4:34 PM 71.4 °F 48.2 °F 44% 30.10 in 10.0 mi WNW 12.7 mph 18.4 mph N/A   Clear
4:54 PM 72.1 °F 49.6 °F 45% 30.09 in 10.0 mi WNW 15.0 mph 20.7 mph N/A   Scattered Clouds
5:34 PM 70.5 °F 49.3 °F 47% 30.09 in 10.0 mi WNW 6.9 mph 17.3 mph N/A   Scattered Clouds
5:54 PM 70.5 °F 48.0 °F 45% 30.09 in 10.0 mi WNW 10.4 mph 17.3 mph N/A   Scattered Clouds
6:14 PM 70.3 °F 49.1 °F 47% 30.09 in 10.0 mi West 11.5 mph 17.3 mph N/A   Clear
6:34 PM 70.2 °F 49.3 °F 47% 30.09 in 10.0 mi West 10.4 mph 16.1 mph N/A   Scattered Clouds
6:55 PM 70.0 °F 49.8 °F 49% 30.09 in 10.0 mi WNW 9.2 mph - N/A   Scattered Clouds
7:14 PM 69.3 °F 49.3 °F 49% 30.09 in 10.0 mi WNW 8.1 mph - N/A   Scattered Clouds
7:34 PM 68.7 °F 50.7 °F 53% 30.09 in 10.0 mi WNW 4.6 mph - N/A   Scattered Clouds
7:54 PM 67.5 °F 50.9 °F 55% 30.09 in 10.0 mi WNW 4.6 mph - N/A   Scattered Clouds
8:14 PM 65.5 °F 51.3 °F 60% 30.09 in 10.0 mi WNW 3.5 mph - N/A   Clear
8:35 PM 63.0 °F 51.4 °F 66% 30.10 in 10.0 mi West 3.5 mph - N/A   Clear
8:55 PM 61.0 °F 51.8 °F 72% 30.10 in 10.0 mi West 3.5 mph - N/A   Clear
9:14 PM 59.9 °F 51.8 °F 75% 30.10 in 10.0 mi WSW 4.6 mph - N/A   Clear
9:34 PM 58.1 °F 52.3 °F 81% 30.11 in 10.0 mi WSW 4.6 mph - N/A   Clear
9:54 PM 57.7 °F 52.0 °F 81% 30.11 in 7.0 mi WSW 3.5 mph - N/A   Clear
10:15 PM 56.7 °F 52.0 °F 84% 30.11 in 10.0 mi Calm Calm - N/A   Clear
10:34 PM 57.7 °F 52.0 °F 81% 30.11 in 10.0 mi West 4.6 mph - N/A   Clear
10:54 PM 58.5 °F 51.4 °F 77% 30.11 in 7.0 mi West 5.8 mph - N/A   Clear
11:14 PM 57.9 °F 52.0 °F 81% 30.11 in 5.0 mi West 3.5 mph - N/A   Haze
11:34 PM 57.2 °F 51.8 °F 82% 30.11 in 7.0 mi West 4.6 mph - N/A   Clear
11:54 PM 57.4 °F 51.8 °F 82% 30.11 in 7.0 mi West 4.6 mph - N/A   Clear